Regional Weather Roundup
Issued by NWS Burlington, VT

Home | Current Version | Previous Version | Text Only | Print | Product List | Glossary On
Versions: 1 2 3 4 5 6 7 8 9 10 11 12 13 14 15 16 17 18 19 20 21 22 23 24 25 26 27 28 29 30 31 32 33 34 35 36 37 38 39 40 41 42 43 44 45 46 47 48 49 50
515
ASUS41 KBTV 270110
RWRBTV
VERMONT REGIONAL WEATHER ROUNDUP
NATIONAL WEATHER SERVICE BURLINGTON VT
900 PM EDT TUE JUL 26 2016

NOTE: "FAIR" INDICATES FEW OR NO CLOUDS BELOW 12,000 FEET WITH NO
SIGNIFICANT WEATHER AND/OR OBSTRUCTIONS TO VISIBILITY.

* THESE REPORTS ARE NOT UNDER NWS QUALITY CONTROL AND/OR DO NOT
  REPORT WEATHER SUCH AS PRECIPITATION AND FOG.

VTZ001>019-270200-
_____VERMONT_____


CITY           SKY/WX    TMP DP  RH WIND       PRES   REMARKS
BURLINGTON     FAIR      78  61  55 NW3       29.89R
MONTPELIER     FAIR      66  60  81 CALM      29.96R
MORRISVILLE    FAIR      67  62  84 CALM      29.92R
ST. JOHNSBURY*   N/A     70  62  76 MISG      29.89R
LYNDONVILLE*   FAIR      70  60  70 CALM      29.94R
MIDDLEBURY*    FAIR      68  65  89 CALM      29.90S
RUTLAND*       FAIR      73  61  65 NW3       29.92R
SPRINGFIELD    FAIR      73  59  61 CALM      29.90R
HIGHGATE*      FAIR      69  64  82 CALM      29.88R
NEWPORT*       FAIR      67  61  83 W3        29.92R
BENNINGTON     FAIR      67  61  81 CALM      29.92R
SUTTON*          N/A     64 N/A N/A MISG        N/A

_____LAKE CHAMPLAIN_____


CITY           SKY/WX    TMP DP  RH WIND       PRES   REMARKS
BURTON ISLAND*   N/A     79  66  65 W1          N/A
DIAMOND ISL*     N/A     77  64  65 NE1         N/A

$$

NYZ007-026>031-035-052-083-087-270200-
_____NORTHERN NEW YORK_____


CITY           SKY/WX    TMP DP  RH WIND       PRES   REMARKS
PLATTSBURGH    CLEAR     73  63  70 W3        29.88R
SARANAC LAKE   PTCLDY    66  60  81 CALM      29.95R
MASSENA        CLOUDY    73  65  75 CALM      29.89R
OGDENSBURG*    CLEAR     70  64  83 CALM      29.89S
POTSDAM*       CLEAR     73  66  78 SW6       29.91R
WATERTOWN      PTCLDY    73  62  68 S6        29.92R
FT DRUM        PTCLDY    74  62  64 SW8       29.93R
ALBANY         PTCLDY    78  61  55 W10       29.90R
GLENS FALLS    CLEAR     70  64  81 CALM      29.89R

$$
NHZ002-005-011-270200-
_____NEW HAMPSHIRE_____


CITY           SKY/WX    TMP DP  RH WIND       PRES   REMARKS
LEBANON        CLEAR     72  61  68 CALM      29.89R
KEENE          CLEAR     74  61  63 CALM      29.90R
MT WASHINGTON  FOG       50  50 100 NW48        N/A  VSB 0
PLYMOUTH       FAIR      73  59  61 CALM      29.88R
WHITEFIELD     MOCLDY    69  62  78 CALM      29.92R

$$

_____REGIONAL QUEBEC LOCATIONS_____


CITY           SKY/WX    TMP DP  RH WIND       PRES   REMARKS
MONTREAL       CLEAR     77  63  61 W6        29.86R
QUEBEC CITY    PTCLDY    70  66  88 SW7       29.81R
SHERBROOKE     PTCLDY    68  63  83 SW5       29.88R

_____REGIONAL ONTARIO LOCATIONS_____


CITY           SKY/WX    TMP DP  RH WIND       PRES   REMARKS
OTTAWA         CLEAR     77  59  53 W5        29.88S

______KEY______
VSB  - VISIBILITY IN MILES
WCI  - WIND CHILL INDEX
HX   - HEAT INDEX
$$
NNNN




USA.gov is the U.S. government's official web portal to all federal, state and local government web resources and services.